Location: Palomar Mountain Lodge
(33.3110°N, 116.8495°W)
Time: 18:52:51
(UTC-07:00)

Nadezhda 2 Rocket - Pass Details

Date: 14 June 2018
Orbit: 948 x 1010 km, 83.0° (Epoch: 17 June)

Event Time Altitude Azimuth Distance (km) Brightness Sun altitude
Rises 22:25:01 0° 355° (N) 3,706 8.5 -23.9°
Reaches altitude 10° 22:27:34 10° 356° (N) 2,746 7.6 -24.3°
Maximum altitude 22:33:52 80° 84° (E) 990 4.4 -25.0°
Enters shadow 22:35:10 58° 158° (SSE) 1,119 4.4 -25.2°
